Theta_e
321 326 327 328 330 331 330 328 324 323 322 315 314 315 316 321 322 319 317 317 317 318 318 318 319 321 322 321 322 323 322 323 325 323 323 324 317 315 317 317 320 321 322 323 325 327 325 325 325 326 328 328 329 330 331 331 331 331 332 332 333 334 335 335 335 336 336 337 337 337 337 337 336 337 337 337 337 337 336 335 336 336 337 338 339 339 339 339 338 338 338 338 339 339 338 338 337
324 328 328 328 330 331 331 328 322 320 316 312 315 317 318 321 320 318 318 317 318 319 318 318 318 320 320 319 320 321 322 321 322 323 321 317 315 315 315 316 318 320 321 322 324 325 325 323 323 325 326 327 328 328 329 329 328 329 329 330 331 331 332 332 332 332 332 333 333 333 333 333 333 333 333 334 334 334 334 334 334 334 335 336 338 340 339 339 338 338 338 338 338 339 338 338 337
327 329 329 329 330 330 330 327 320 316 313 311 314 319 321 320 319 318 318 318 320 319 318 318 318 319 319 319 319 319 321 320 319 320 318 316 316 314 314 316 317 318 320 321 322 323 324 322 322 323 323 324 324 325 325 325 325 325 326 326 327 328 328 329 329 329 329 329 329 330 330 330 330 331 331 331 331 331 332 332 332 332 333 333 335 337 338 338 338 338 338 338 338 338 337 336 336
328 329 330 331 330 328 329 328 323 315 312 310 312 320 320 319 320 319 320 319 319 318 318 318 318 318 318 320 319 318 320 321 320 320 319 317 315 313 313 315 315 317 318 319 320 321 321 320 320 320 319 319 320 320 320 321 321 321 322 322 323 324 324 325 325 325 326 326 326 327 327 328 328 328 328 329 329 329 329 330 330 330 331 331 331 333 334 336 336 337 337 337 337 337 336 336 335
327 329 328 331 332 328 328 327 324 316 313 313 312 320 320 319 320 319 321 319 318 318 317 318 318 317 316 318 318 319 320 320 319 319 319 316 312 311 313 313 314 315 316 317 319 320 319 317 318 317 316 315 315 316 316 316 316 316 316 317 318 319 319 320 320 321 321 322 323 323 324 324 325 325 326 326 326 326 326 326 327 328 328 329 329 330 331 332 333 333 334 335 335 335 334 334 334
327 327 325 329 330 325 325 321 318 316 317 319 316 320 320 319 320 319 319 318 317 317 316 317 318 317 317 317 316 318 319 319 319 318 318 315 310 310 311 311 312 313 313 315 317 318 316 314 314 314 312 310 310 310 310 311 310 309 309 310 311 312 312 313 313 314 315 316 316 317 318 318 319 320 321 322 322 322 322 323 323 324 325 325 326 327 328 328 329 330 330 331 331 332 332 332 332
326 326 325 326 325 322 322 317 315 317 319 321 319 320 320 319 320 320 319 318 317 316 316 317 317 317 317 317 316 316 315 317 319 317 316 313 309 309 309 309 310 310 311 314 314 314 313 311 310 309 307 306 305 305 305 305 305 304 304 304 304 304 305 305 305 306 306 307 308 308 309 309 310 310 312 313 315 316 317 318 318 319 320 321 321 322 323 324 325 326 326 327 327 328 329 330 330
326 326 325 324 325 322 319 316 317 320 320 320 319 320 320 319 319 319 319 318 317 317 316 316 316 317 317 316 316 316 313 315 316 314 313 310 308 307 307 307 307 307 309 311 311 309 307 306 305 305 304 304 303 302 301 301 301 301 301 300 300 300 300 300 300 300 300 300 300 301 301 301 302 302 303 303 305 306 308 310 311 313 313 315 316 317 318 319 320 321 322 322 323 323 324 325 326
324 325 324 323 325 322 318 317 318 321 322 320 318 318 319 320 319 319 319 318 318 317 317 316 315 316 317 316 317 315 314 314 312 311 310 308 307 306 305 305 305 305 305 307 306 304 303 302 302 302 302 301 301 300 299 299 299 298 299 298 298 298 298 298 298 298 298 298 298 298 298 298 298 298 298 298 299 299 300 302 303 304 305 307 308 310 311 312 314 315 317 317 318 319 319 320 321
323 323 323 323 322 318 315 316 318 321 322 319 318 317 318 319 318 318 318 318 318 317 317 316 315 316 316 317 317 316 315 312 310 310 308 307 306 305 305 304 304 303 302 302 301 300 299 299 299 299 299 299 298 298 298 298 298 298 298 298 297 298 297 297 297 297 297 297 297 297 297 297 297 297 297 297 297 297 297 298 298 298 299 300 300 301 303 304 305 307 309 310 312 313 314 316 317
323 322 322 322 318 313 312 315 318 322 322 319 319 317 317 318 318 318 318 318 318 317 317 315 316 316 316 317 317 315 314 311 310 309 307 306 305 304 304 303 302 302 301 299 298 298 297 297 297 297 298 298 298 297 297 297 297 297 297 297 297 297 297 297 297 297 297 297 297 297 297 297 297 297 297 297 297 297 296 297 297 297 297 297 297 297 297 298 298 299 300 302 303 304 306 308 310
323 324 323 319 316 315 316 317 318 322 322 320 319 317 317 317 318 318 318 318 318 318 316 315 316 316 316 316 316 314 313 312 310 309 306 305 304 304 303 302 300 300 299 297 297 297 297 296 296 297 297 297 297 297 297 297 297 297 296 297 296 296 296 296 296 297 296 296 296 296 296 296 296 296 296 296 296 296 296 296 296 296 296 296 296 296 296 297 297 297 297 297 297 298 299 300 302
321 324 324 319 320 321 319 318 319 322 321 320 320 317 317 317 318 318 318 318 318 318 317 316 315 315 316 317 315 312 313 312 310 307 306 305 304 303 302 302 300 299 297 297 297 297 297 297 296 296 296 296 296 297 296 296 296 296 296 296 296 296 296 296 296 296 296 296 296 296 296 296 296 296 296 296 296 296 296 296 296 296 296 296 296 296 296 296 296 296 296 296 297 297 297 297 297
320 322 323 321 323 323 319 317 319 319 318 321 319 316 316 317 318 317 317 318 317 317 316 316 315 315 316 316 315 313 313 312 309 306 305 305 304 303 302 301 299 298 297 297 297 296 297 297 296 296 296 296 296 296 296 296 296 296 296 296 295 295 295 295 295 295 295 295 295 295 295 295 295 295 295 295 295 295 295 295 295 295 295 295 295 295 296 296 296 296 296 296 296 296 296 297 297
320 321 321 321 320 320 320 318 319 318 318 320 317 315 316 316 317 317 317 317 317 315 314 315 315 315 315 316 317 315 314 311 308 305 305 304 303 303 302 301 299 298 297 298 298 297 298 297 296 296 295 296 296 296 295 295 295 295 295 295 295 295 295 295 295 295 295 295 295 295 295 295 295 295 295 295 295 295 295 295 295 295 295 295 295 295 295 295 295 295 295 295 296 296 296 296 296
321 321 321 319 317 317 320 321 320 318 318 319 315 315 316 315 315 316 315 314 316 313 313 315 314 315 314 315 314 313 313 309 306 305 304 303 303 303 302 301 300 299 298 299 299 298 298 297 296 296 296 296 296 296 295 295 295 295 295 295 295 295 295 295 295 295 295 295 295 295 295 295 295 294 294 294 294 295 294 294 294 294 294 294 294 294 294 295 295 295 295 295 295 295 295 295 296
320 322 321 318 316 318 321 322 320 318 319 318 314 315 316 316 314 313 311 311 314 314 313 314 314 314 312 311 309 312 312 307 305 304 304 303 303 303 302 301 300 301 299 299 300 299 298 296 296 296 295 296 295 295 295 295 295 295 295 295 295 295 295 295 295 295 295 295 295 295 294 294 295 294 294 294 294 294 294 294 294 294 294 294 294 294 294 294 294 294 294 295 295 295 295 295 296
320 322 320 317 319 320 321 321 320 319 319 317 315 315 316 316 314 312 311 312 313 313 313 313 313 313 311 308 307 311 309 305 305 304 304 304 303 303 302 302 301 301 300 300 300 299 298 297 296 296 295 295 295 295 295 295 295 295 295 295 295 295 295 295 295 295 295 295 294 294 294 294 294 294 293 293 293 293 293 293 294 294 294 294 294 294 294 294 294 294 294 294 294 295 295 297 298
321 322 320 319 321 321 319 319 318 318 318 317 316 315 315 316 315 312 312 314 313 313 314 313 313 313 310 307 308 310 307 306 305 304 305 304 304 304 303 303 302 302 301 301 300 299 299 298 297 296 295 295 295 295 295 295 294 294 294 294 295 294 294 294 294 294 294 294 294 294 293 293 294 294 293 293 294 294 294 293 293 294 294 293 293 294 293 293 294 294 294 294 294 294 294 296 298
319 321 320 321 321 320 318 317 317 317 317 317 316 315 315 316 315 312 312 315 315 314 314 314 313 313 312 308 308 309 307 307 305 305 305 304 305 304 304 303 303 302 301 301 300 299 299 298 297 296 295 295 295 294 295 296 295 295 295 295 295 295 294 294 294 294 294 294 294 293 293 293 294 294 293 293 294 294 294 293 294 294 293 293 293 293 293 292 293 293 293 293 294 294 293 294 295
320 319 319 321 319 318 318 317 316 316 315 316 316 315 314 315 314 313 313 315 315 316 316 315 314 314 314 310 307 309 308 307 306 305 305 305 305 304 304 304 303 303 302 301 300 300 299 299 298 296 294 294 295 295 296 297 296 296 296 295 295 295 294 294 294 294 293 293 293 293 293 293 293 294 292 292 293 293 293 293 294 293 293 293 292 293 293 291 293 294 293 293 294 294 294 294 294
318 319 319 319 318 317 317 316 315 314 313 314 315 315 315 315 314 313 314 314 316 317 315 316 316 316 316 311 308 309 308 308 307 306 306 306 305 305 305 304 303 303 302 302 301 300 299 299 298 296 295 294 295 296 297 296 296 297 297 296 296 296 295 295 295 294 293 292 292 292 293 293 294 294 292 292 292 293 293 292 293 293 292 293 292 292 292 291 292 293 293 293 293 293 294 294 295
317 319 318 317 317 317 316 314 313 312 313 314 314 315 314 314 314 314 313 314 316 316 314 315 315 315 315 311 309 309 308 308 308 307 306 306 306 305 305 304 304 303 302 302 301 300 299 299 297 296 295 295 295 297 296 295 296 298 296 296 297 297 296 296 296 294 292 292 292 292 293 293 293 293 292 292 293 292 292 291 292 292 292 292 291 291 291 290 291 292 292 292 291 292 293 293 295
316 318 318 317 316 316 315 314 312 311 313 313 313 313 313 313 314 315 314 314 315 315 313 312 313 314 314 311 309 309 309 309 309 308 307 307 306 306 305 304 303 303 303 302 301 300 299 299 297 296 296 295 295 295 296 296 296 296 295 295 296 296 296 296 295 293 292 292 292 292 292 292 292 293 292 292 292 292 292 291 292 292 292 292 291 291 291 290 291 292 292 291 290 291 291 292 293
316 317 318 316 315 314 315 314 312 312 312 312 312 311 313 314 314 314 313 314 314 315 313 311 311 312 312 310 310 309 309 309 309 309 308 307 306 306 306 305 303 303 302 302 301 299 299 298 297 297 296 295 295 295 296 297 296 295 295 296 295 294 295 295 293 292 292 291 292 292 292 292 292 292 291 291 292 291 292 291 292 292 292 292 291 291 291 289 290 292 292 290 290 290 290 292 292
316 317 317 315 315 315 314 314 313 313 312 312 311 312 313 313 313 313 314 314 314 314 314 312 311 310 311 310 310 310 309 309 310 309 308 307 307 306 306 305 303 302 302 301 301 299 299 298 297 297 297 296 296 296 297 297 296 295 295 296 294 293 294 292 292 293 292 291 291 291 292 291 291 291 290 291 291 291 292 292 292 291 292 292 290 290 290 288 290 291 291 290 290 290 291 292 292
314 314 314 314 315 314 314 313 313 313 313 312 311 313 314 312 311 314 315 314 314 315 314 313 311 310 311 310 310 310 309 310 310 309 308 307 307 306 306 305 303 302 302 302 301 300 299 298 297 297 297 297 296 296 297 297 297 296 295 295 293 293 293 292 292 292 291 291 291 291 291 291 291 291 290 290 290 290 291 291 291 291 291 291 289 289 289 288 289 290 291 290 290 291 291 292 292
312 313 313 314 315 314 314 313 313 313 312 312 312 312 313 312 311 314 314 312 313 314 314 313 311 310 311 310 310 309 309 310 310 309 308 308 307 306 305 304 303 302 302 302 301 300 299 297 297 297 297 296 296 296 297 296 297 296 294 294 293 292 292 292 293 292 291 291 291 291 291 290 290 290 290 290 289 290 290 289 290 290 290 290 288 288 288 288 289 290 291 290 290 291 292 292 292
312 312 313 315 315 315 315 314 313 312 313 312 312 312 313 314 312 314 314 311 312 313 313 312 311 310 311 311 310 309 309 310 309 309 308 308 306 306 305 304 303 302 302 301 300 300 299 297 297 297 297 296 296 297 297 296 296 295 294 295 293 291 292 292 292 292 291 291 290 290 290 290 290 290 290 290 289 289 289 289 289 290 290 289 288 288 288 288 289 290 290 290 291 291 291 292 292
313 313 314 315 315 316 316 315 313 312 312 311 312 312 313 315 314 315 315 312 311 312 312 312 312 311 311 311 310 309 309 309 309 309 308 307 306 305 305 304 303 302 302 301 300 300 298 297 297 297 297 296 295 296 296 296 296 294 294 295 292 292 293 292 292 292 291 291 290 290 290 290 290 290 290 289 289 289 289 289 289 289 289 288 287 288 287 288 289 290 290 290 290 290 291 291 291
313 314 314 315 314 315 316 314 312 313 311 310 312 311 313 315 316 316 315 312 312 312 312 312 312 312 310 310 310 309 309 309 309 308 308 307 306 305 305 304 303 302 301 301 300 300 298 297 297 296 296 296 295 296 296 295 295 294 294 294 292 292 293 292 292 292 291 291 291 290 290 290 290 290 289 289 289 288 289 289 289 289 288 287 287 287 287 288 289 289 289 289 290 290 290 290 290
316 315 314 316 315 315 317 314 312 314 311 310 313 312 313 316 316 316 314 312 312 312 313 313 313 313 311 310 310 309 309 308 309 308 307 307 306 305 304 304 303 301 301 300 300 299 298 297 297 296 296 296 295 295 295 295 294 294 294 293 292 291 292 292 292 292 291 290 290 290 290 289 289 289 289 289 288 288 288 288 288 288 287 287 287 287 287 288 288 288 288 289 289 289 289 289 289
318 316 314 316 315 315 316 313 312 314 312 311 312 313 314 315 316 314 312 312 313 313 314 314 314 314 313 311 310 309 309 308 308 307 307 306 306 305 304 303 302 301 301 300 300 299 298 297 297 296 296 296 295 295 294 294 293 293 293 292 291 291 291 292 292 291 291 290 290 290 290 289 289 289 289 289 288 288 288 288 287 287 287 286 286 286 287 287 288 288 288 288 288 289 288 289 289
315 316 315 316 316 314 314 313 312 312 313 313 313 313 313 314 315 314 312 312 312 313 313 313 314 314 314 312 311 309 309 308 307 307 307 306 305 304 303 303 302 301 300 300 300 298 298 297 296 296 296 296 295 295 294 293 293 293 292 291 290 290 291 292 291 290 290 290 290 290 290 289 288 289 288 288 288 288 288 287 287 287 286 286 286 286 286 287 288 288 288 287 287 288 288 288 288
312 313 313 314 315 313 314 315 313 312 312 313 313 313 314 314 314 314 313 313 313 313 313 313 313 313 314 313 312 311 309 309 308 307 306 305 305 304 302 302 301 300 300 300 299 298 298 297 296 296 296 296 295 295 294 293 293 292 292 292 290 290 290 291 290 290 290 290 290 289 289 288 288 288 288 288 288 288 287 287 286 286 286 286 286 286 286 287 288 288 287 287 287 287 287 288 288
314 314 314 313 313 313 315 316 312 312 313 312 313 313 314 315 314 314 314 314 314 313 313 314 313 313 313 313 313 313 310 309 309 307 306 305 304 303 302 301 301 300 300 299 299 298 298 297 296 296 296 295 295 295 294 293 293 293 293 292 291 291 291 291 290 289 290 290 290 289 288 288 288 288 288 288 288 287 287 286 286 286 285 286 286 286 287 287 287 286 286 287 287 287 287 288 288
316 316 316 314 314 313 317 317 311 310 313 313 314 314 314 314 314 314 314 314 314 313 313 313 313 314 313 313 314 314 312 310 309 307 306 305 304 303 301 300 300 299 299 298 298 298 297 297 297 296 296 295 295 294 294 294 293 293 293 293 293 292 292 292 290 289 289 290 290 289 288 288 288 288 288 288 287 286 286 286 286 286 286 286 286 286 286 286 286 286 286 286 286 287 287 287 287
316 315 314 314 315 315 318 316 310 309 311 313 314 314 314 314 314 314 314 314 313 313 314 314 314 314 314 315 314 314 313 311 309 307 306 305 303 302 300 300 299 299 299 298 298 298 297 297 297 296 295 295 294 294 294 294 294 294 294 294 294 293 293 292 291 291 290 289 289 288 288 288 288 288 288 287 287 286 286 286 286 285 285 285 285 285 285 285 286 286 286 286 286 286 287 287 287
316 315 315 314 315 317 318 314 309 308 310 312 314 313 313 314 314 314 313 313 314 314 314 314 315 314 315 315 315 315 313 310 308 306 306 305 303 302 300 299 299 299 298 297 297 298 297 297 296 296 295 294 294 294 294 294 294 294 294 294 294 293 292 292 292 292 290 289 288 288 288 288 288 287 287 287 286 285 285 285 285 285 285 285 285 285 285 286 286 286 286 286 286 286 286 287 287
316 316 315 315 316 318 316 313 310 309 310 312 313 312 313 314 314 314 314 314 314 314 315 315 316 316 316 316 317 316 312 309 308 306 305 304 303 301 300 299 299 299 298 297 297 297 297 297 296 296 295 294 294 294 294 294 294 294 293 293 293 292 292 291 290 290 289 288 288 288 288 287 287 287 287 286 285 285 285 285 285 285 285 285 285 285 286 286 286 286 286 286 286 286 286 286 287
316 317 316 316 317 317 317 316 313 312 312 311 311 313 313 314 316 315 315 315 314 314 314 314 315 316 316 317 317 316 313 311 310 307 305 303 303 301 300 299 299 298 298 297 297 297 297 296 296 296 295 294 294 294 293 294 293 292 292 292 291 291 291 290 290 289 289 288 288 288 288 287 287 287 286 286 285 285 285 284 284 284 284 284 284 285 285 285 285 285 285 285 285 285 286 286 286
315 318 318 317 317 317 318 318 316 315 315 312 312 314 314 314 316 317 316 314 313 314 313 313 313 314 315 316 317 316 313 312 311 308 306 304 303 302 301 299 299 298 298 297 297 297 296 296 296 296 295 294 294 294 293 293 292 292 291 291 291 291 291 291 291 291 291 290 289 289 288 288 287 286 286 285 285 285 284 284 284 284 284 284 284 285 285 285 285 285 285 285 285 285 285 285 285
314 318 320 318 318 318 318 318 317 316 315 313 312 314 315 314 314 315 316 314 313 315 316 316 314 314 315 316 317 315 313 312 311 309 306 304 303 302 301 300 299 298 298 297 297 296 296 296 296 295 295 294 294 293 292 292 292 292 291 291 291 292 292 292 292 292 292 291 290 289 288 287 287 286 285 285 285 284 284 284 284 283 283 283 284 284 284 284 285 285 285 284 284 284 284 285 285
316 318 319 317 317 318 318 318 316 315 315 314 313 314 316 315 314 315 314 313 313 313 315 316 315 315 315 315 317 315 313 312 311 309 306 304 303 302 301 300 299 298 297 297 297 296 296 296 295 295 295 294 294 293 292 292 292 292 292 292 292 293 293 293 293 292 291 290 289 288 288 287 287 286 285 285 284 284 284 284 283 283 283 283 284 284 284 284 284 284 284 284 284 284 284 284 284
317 315 315 315 315 316 316 316 315 315 316 316 315 315 316 316 315 315 315 312 312 313 313 314 314 315 315 316 317 314 313 313 311 309 307 305 304 303 302 300 299 298 297 297 297 296 296 296 295 295 295 294 293 293 292 291 292 292 292 292 293 293 293 293 292 291 290 289 288 288 287 287 286 286 285 284 284 284 284 283 283 282 283 283 284 284 284 284 284 283 283 283 283 283 283 283 284
314 312 313 313 313 314 314 314 314 314 316 317 317 315 316 316 314 314 314 312 312 313 313 314 314 315 317 317 318 314 312 312 311 309 308 306 305 303 302 301 299 298 297 297 297 296 296 295 295 295 294 294 293 293 292 291 291 291 292 292 292 292 292 291 291 290 289 289 288 288 287 287 287 286 285 285 284 284 283 283 282 282 282 283 283 283 283 283 283 283 283 283 283 283 283 283 283
311 313 314 314 313 312 312 313 312 314 317 318 317 315 316 317 315 313 314 313 313 315 314 314 315 315 317 319 318 314 312 311 310 309 308 307 305 303 302 301 299 298 297 297 297 296 296 295 295 295 294 294 293 292 292 291 291 291 292 292 292 292 291 291 290 290 289 288 288 288 287 287 287 286 285 285 284 283 283 283 282 282 282 282 282 282 283 283 283 283 282 282 282 282 282 282 282
312 314 314 315 315 313 313 313 312 316 319 317 316 317 317 316 314 313 314 314 314 315 314 314 315 315 318 320 317 313 312 311 310 309 308 306 305 303 302 301 299 298 297 297 297 296 296 295 295 295 294 294 293 292 292 291 291 291 291 291 291 291 291 290 290 290 289 288 288 288 287 287 286 286 285 284 284 283 283 283 282 282 282 282 282 282 282 282 282 282 282 282 282 282 282 282 282
312 313 313 316 317 316 317 316 315 317 318 315 314 318 319 316 314 313 314 314 313 314 314 314 315 314 317 322 318 313 311 311 309 308 307 306 304 303 302 301 299 298 298 297 297 296 296 296 295 295 294 293 293 292 292 291 291 290 291 290 291 291 290 290 289 289 289 288 288 288 287 286 286 286 285 284 284 283 283 282 282 282 282 282 282 282 281 281 281 281 281 281 281 281 281 281 281
311 313 314 317 317 319 321 319 318 319 317 313 312 315 317 314 312 314 314 313 314 313 314 316 316 315 319 323 318 313 311 310 309 308 307 306 305 303 302 301 299 298 298 297 297 296 296 296 295 295 294 293 293 292 292 291 291 290 290 290 290 290 289 289 289 288 288 288 287 287 286 286 285 285 284 284 283 283 282 282 281 281 280 280 280 280 280 280 280 280 280 280 280 281 281 281 281
311 313 315 316 317 318 318 317 317 318 316 313 311 312 313 310 311 315 314 313 314 313 314 317 318 320 322 319 315 313 311 310 310 308 307 306 305 304 302 301 300 299 298 297 297 296 296 296 295 295 294 293 293 292 291 291 291 290 289 289 289 289 288 288 288 287 287 287 286 285 285 285 284 284 283 283 283 282 282 281 280 280 279 279 279 279 279 279 279 279 280 280 280 280 280 280 280
312 313 314 316 316 316 316 316 316 315 314 315 312 312 311 310 313 315 314 314 314 313 314 316 317 319 320 316 313 312 311 309 309 308 308 306 305 304 303 301 300 299 298 297 296 296 296 295 295 295 294 293 293 292 291 291 290 290 289 289 288 288 288 287 287 286 286 286 285 284 284 284 283 283 283 283 282 282 281 280 279 279 279 279 279 279 279 279 279 279 279 279 279 279 279 280 280
314 313 315 315 315 316 317 318 316 313 314 316 314 313 312 312 313 314 313 314 313 313 313 313 315 316 318 317 315 313 311 310 309 308 308 306 305 304 303 301 300 299 298 297 296 296 296 295 295 294 294 293 292 292 291 290 290 289 289 288 288 287 287 287 286 286 285 285 284 284 283 283 283 283 283 282 282 281 280 279 278 278 278 278 278 278 278 278 278 278 278 279 279 279 279 279 279
313 313 315 314 313 314 315 317 316 315 317 316 314 314 312 311 312 313 313 313 312 312 312 313 314 315 317 318 318 315 313 311 309 308 308 307 305 304 303 302 300 299 298 297 296 296 296 295 295 294 294 293 292 291 291 290 290 289 288 288 287 287 286 286 285 285 284 284 283 283 283 282 282 282 282 281 281 280 279 278 278 278 278 278 278 277 278 278 278 278 278 278 278 278 278 279 279
309 310 312 312 313 314 314 316 316 315 317 316 313 312 311 311 312 312 312 312 312 312 312 313 313 314 315 316 316 315 313 312 310 308 307 306 305 304 304 302 300 299 298 297 296 296 295 295 295 294 293 293 292 291 290 290 289 289 288 287 287 286 286 285 284 284 284 283 283 283 283 282 282 281 280 280 279 279 278 278 278 277 277 277 277 277 277 277 277 277 277 277 277 277 277 278 278
306 307 310 310 311 313 313 315 315 314 315 314 314 314 312 313 313 313 312 312 312 312 312 313 312 312 313 314 315 315 315 316 314 311 309 307 305 304 303 302 300 299 298 297 296 295 295 295 294 294 293 293 292 291 290 289 289 288 287 287 286 285 285 284 284 283 283 283 283 283 282 281 281 280 279 279 278 278 277 277 277 277 277 277 277 276 276 276 276 276 276 276 276 276 276 276 276
308 308 310 310 310 310 311 313 313 313 314 314 314 314 312 312 313 315 313 312 313 313 313 314 313 312 312 313 315 316 318 319 316 313 312 309 306 304 303 301 300 299 298 297 296 295 295 295 294 294 293 292 291 291 290 289 288 288 287 286 285 285 284 284 283 283 282 282 282 282 281 281 280 279 279 278 277 277 277 277 276 276 276 276 276 275 275 275 275 275 275 275 275 275 275 275 275
312 310 311 311 311 311 312 315 314 313 314 314 314 314 313 312 313 313 312 312 313 313 313 315 314 313 312 313 315 315 318 319 317 314 313 311 309 305 302 300 299 298 297 296 295 295 294 294 294 293 293 292 291 290 289 289 288 287 286 286 285 284 283 283 282 282 282 282 282 281 281 280 279 279 278 277 277 276 276 276 276 275 275 275 274 274 274 274 274 274 274 274 273 273 273 273 273
Wind_Speed
1 1 0 1 3 4 4 4 4 3 4 6 2 1 4 4 1 4 6 5 3 5 4 2 2 1 2 1 2 3 5 3 3 1 0 4 5 4 4 6 6 6 6 6 5 5 7 7 7 8 9 9 9 9 9 9 7 5 5 6 7 9 9 9 9 9 8 9 9 7 7 7 7 8 7 7 7 8 10 10 9 10 10 9 9 9 8 9 10 10 9 9 10 9 9 8 9
2 2 2 3 4 4 2 2 4 3 5 5 3 1 5 6 4 6 7 7 2 4 6 3 4 2 2 4 4 5 1 6 6 4 4 6 7 4 4 5 6 6 7 6 5 6 7 7 7 8 8 9 9 9 9 8 6 5 5 5 6 7 6 6 6 6 6 6 6 5 5 5 5 5 6 6 6 7 8 8 8 8 9 8 8 9 9 9 10 10 10 9 9 10 9 8 9
3 3 3 3 4 4 2 2 5 4 5 4 3 4 5 6 5 5 4 5 6 7 6 4 3 2 2 4 4 5 1 5 6 6 6 7 7 5 5 6 7 6 6 6 6 6 7 6 6 7 7 7 8 8 8 6 6 5 5 5 5 5 5 4 5 5 5 5 5 5 5 5 5 5 5 6 6 7 7 7 8 7 7 7 6 7 8 9 10 10 10 10 10 11 10 10 10
4 4 4 4 4 4 3 4 5 5 5 4 1 6 6 5 5 4 6 7 8 7 5 5 4 1 4 8 2 3 1 4 5 5 6 6 5 7 8 7 7 5 6 6 6 6 5 5 6 6 5 6 6 6 6 5 5 5 5 5 5 4 4 4 4 4 4 4 4 4 4 4 4 4 5 5 6 6 6 7 7 8 8 8 7 7 7 7 8 8 9 9 9 10 10 11 11
2 4 5 5 3 2 3 4 4 6 5 4 2 5 6 4 6 6 7 7 7 5 4 6 4 3 2 5 1 2 1 5 5 4 6 7 6 8 9 8 7 5 7 6 6 7 5 6 6 6 6 6 6 6 5 5 5 5 6 5 5 5 5 5 4 4 4 4 3 3 3 3 4 4 5 5 6 6 6 7 7 8 8 8 8 8 8 7 8 8 8 8 9 10 11 11 11
2 4 4 5 3 1 3 5 5 6 2 4 3 3 6 5 6 8 7 6 6 3 2 5 2 2 3 1 1 1 3 2 5 5 5 9 8 8 9 8 6 7 7 6 7 6 6 6 6 6 6 6 6 6 6 6 6 6 6 6 6 5 5 5 5 5 4 4 4 4 3 3 4 4 5 5 6 6 7 7 8 8 8 8 8 8 8 9 9 10 10 10 11 12 12 12 11
4 3 4 4 3 1 5 6 6 5 2 3 3 2 3 5 6 9 9 6 4 3 2 4 1 1 3 3 2 2 5 2 5 5 5 10 10 10 9 7 7 7 7 7 6 5 6 7 6 6 6 6 6 5 5 5 5 5 5 5 5 5 4 4 4 5 4 5 4 5 5 5 5 5 5 5 5 5 6 7 8 8 9 9 9 9 9 10 10 11 11 11 12 13 13 14 13
5 3 1 3 4 3 6 7 6 5 2 3 1 2 1 5 7 7 9 5 4 6 6 6 3 4 2 3 3 4 6 4 6 7 8 10 11 11 9 7 8 8 7 7 5 6 7 7 8 7 6 5 5 5 4 4 4 4 3 4 3 3 4 4 4 4 5 5 5 5 5 5 6 6 6 6 6 5 6 6 7 8 8 9 10 10 10 11 11 12 12 13 13 14 14 15 15
5 4 1 3 5 4 6 7 6 4 0 2 2 0 2 4 7 7 9 6 4 6 7 8 6 5 2 3 3 4 6 6 8 9 10 10 11 10 8 7 8 8 8 7 7 7 8 8 7 6 6 5 4 4 4 3 3 3 3 3 2 3 3 4 4 5 5 5 5 6 6 6 7 8 8 8 7 7 7 7 7 8 8 9 10 11 11 12 12 13 14 15 15 15 16 16 16
5 4 2 3 5 5 6 7 4 2 1 2 2 3 3 5 7 7 9 8 5 5 5 6 8 8 2 3 2 4 8 11 11 11 11 11 12 10 9 8 8 9 9 9 8 8 7 7 6 6 6 5 5 4 4 4 3 2 2 2 2 2 3 3 4 4 5 6 6 6 7 8 8 9 9 9 9 8 8 8 9 9 10 10 10 11 12 12 13 14 16 17 17 18 18 18 18
4 4 3 4 5 6 6 5 3 1 2 3 3 5 5 6 7 8 9 8 7 6 6 6 6 10 8 6 2 5 11 14 13 13 13 13 13 11 10 10 11 11 11 11 10 8 7 6 6 6 6 6 6 5 5 4 4 3 3 3 3 3 3 3 4 5 5 6 7 7 7 8 8 9 9 9 9 10 10 10 10 11 11 11 12 12 12 13 13 14 16 17 18 19 19 20 20
4 3 3 5 6 6 4 5 4 2 1 4 6 7 6 7 9 9 11 9 8 7 8 9 3 4 9 7 2 8 13 14 13 15 15 14 13 11 10 11 12 12 12 12 10 9 8 8 7 6 6 5 5 5 5 5 4 4 4 4 4 4 5 5 6 6 7 7 7 7 8 8 8 8 9 9 9 9 10 10 10 11 11 12 12 13 13 13 14 15 15 16 17 18 19 19 20
5 3 4 6 5 6 6 6 5 4 4 5 5 7 7 9 11 10 10 9 10 9 8 11 3 1 8 4 4 7 11 15 15 15 16 14 12 11 10 9 11 12 12 12 11 10 9 8 8 7 6 5 4 4 4 5 5 4 5 5 5 6 6 7 8 8 8 9 9 9 9 9 9 9 9 9 9 9 9 9 9 10 10 11 11 12 12 13 14 14 15 16 17 18 19 19 20
4 3 4 6 4 6 6 7 5 5 5 2 5 8 8 8 9 10 9 10 12 6 3 7 5 2 7 5 4 5 10 17 17 16 16 14 12 12 10 10 12 12 12 11 10 10 10 9 9 8 7 6 5 4 4 4 4 4 5 5 6 6 7 8 8 9 9 10 10 10 11 11 12 12 12 12 12 12 12 11 11 11 11 11 11 11 11 12 12 13 14 15 16 17 18 19 19
3 3 3 6 5 6 4 5 5 6 4 5 6 6 8 6 5 9 9 10 7 3 4 5 6 3 3 6 3 3 13 20 18 17 16 14 13 12 11 12 13 13 13 11 11 11 10 10 10 9 8 7 6 5 5 4 3 4 4 5 6 6 7 8 8 9 10 10 11 11 12 13 14 14 14 14 14 14 15 15 14 14 14 14 13 13 13 12 12 12 13 13 14 15 16 17 18
3 3 3 5 6 6 2 3 3 5 3 6 5 5 8 5 3 7 3 4 2 4 5 5 8 4 3 2 1 5 18 21 19 18 16 15 13 11 11 11 11 12 13 12 11 12 11 12 11 10 10 9 8 7 6 4 4 3 4 4 5 6 7 8 8 9 10 10 10 12 13 14 14 14 14 15 15 15 15 15 16 16 16 16 16 16 16 15 15 15 14 14 14 14 14 14 15
2 3 5 5 6 6 1 2 3 3 3 4 6 6 9 6 5 4 3 4 6 4 7 6 8 6 3 3 3 7 20 21 20 19 17 15 13 12 12 12 12 11 13 13 12 13 13 13 12 12 12 11 10 8 7 6 5 4 4 3 4 5 6 6 7 8 9 9 10 12 13 12 12 12 13 13 13 14 14 14 15 15 15 16 16 17 16 17 17 17 18 18 17 16 16 16 16
3 4 5 6 6 5 1 4 4 3 5 1 6 7 9 7 7 5 1 7 10 8 9 8 8 8 3 6 5 12 20 20 20 20 18 17 14 14 14 14 14 13 14 14 13 14 14 13 13 13 13 12 11 9 8 7 6 5 5 4 4 4 4 5 6 7 8 8 9 11 11 10 10 11 12 11 12 13 13 14 14 14 15 15 16 15 16 17 17 17 18 19 19 20 20 19 16
5 4 5 6 6 2 2 5 5 4 7 2 3 7 9 6 6 6 6 10 11 13 12 10 11 11 9 9 9 15 19 19 20 21 20 19 18 17 16 16 16 15 15 15 14 14 13 13 13 12 13 13 11 10 9 9 8 7 6 5 4 4 4 5 5 6 7 7 9 10 10 10 11 11 12 13 14 14 15 15 16 16 17 17 17 17 18 18 18 18 19 19 20 20 21 19 17
5 4 6 5 3 3 3 4 5 5 5 5 4 4 7 7 4 7 7 12 13 15 13 11 14 16 14 13 14 18 18 19 21 21 21 21 19 18 17 17 17 17 17 16 15 15 14 13 14 14 14 13 11 11 10 9 8 7 6 5 4 3 3 4 5 5 6 7 9 9 9 11 11 11 13 14 14 14 15 16 17 17 18 19 19 19 20 21 21 20 21 21 19 19 20 19 19
2 4 7 4 3 5 4 2 4 3 2 6 5 3 7 7 5 6 7 10 12 14 14 15 16 16 16 15 16 19 19 19 21 22 21 22 21 19 18 17 17 16 16 15 15 16 16 14 15 15 15 14 12 11 10 9 9 8 6 6 5 3 3 4 4 5 6 7 8 8 9 11 10 10 12 13 13 13 14 15 14 15 17 18 19 18 18 21 21 19 20 20 18 19 19 18 19
3 7 10 6 3 5 2 2 1 1 1 6 7 6 5 4 6 10 11 12 11 6 6 12 15 14 12 17 18 18 19 19 21 23 23 23 23 21 19 17 17 16 16 16 16 17 17 16 16 16 15 15 13 11 10 11 10 8 7 7 5 3 3 3 3 3 5 6 7 8 8 9 8 8 11 12 12 12 12 14 13 14 15 15 17 16 17 20 18 17 18 18 19 19 19 19 18
5 8 8 6 6 6 2 2 1 1 4 7 7 6 3 5 8 11 14 18 14 2 3 2 6 7 6 17 18 17 18 19 21 25 26 25 26 24 22 19 18 18 17 17 16 17 18 17 17 17 16 16 15 13 12 12 10 9 9 8 6 5 3 3 3 2 3 5 6 7 6 6 6 7 9 11 11 11 12 14 13 13 14 14 17 16 17 20 18 17 17 19 20 20 20 19 17
7 8 7 5 4 7 5 0 2 3 7 7 3 4 5 11 10 9 15 19 18 9 2 3 1 1 8 15 16 17 19 20 23 26 27 26 26 26 23 20 19 18 17 18 17 17 19 18 19 19 17 17 17 15 13 11 11 11 10 8 7 7 5 4 4 2 2 4 4 5 5 5 5 5 8 9 9 11 12 14 12 13 13 12 15 15 16 19 18 16 17 20 21 20 21 18 18
10 9 7 3 3 7 7 3 5 5 7 5 4 7 11 13 8 9 17 18 16 14 7 6 5 6 9 13 15 16 17 19 22 24 24 24 23 24 23 20 19 18 19 19 18 18 19 20 21 20 18 18 17 15 13 10 11 12 10 8 8 7 6 5 4 3 2 2 2 3 3 4 5 5 8 9 9 11 11 12 11 12 11 10 14 14 14 18 17 14 15 19 20 20 20 17 19
6 7 7 5 6 8 6 6 9 7 6 5 7 12 13 8 4 11 21 19 17 16 13 9 8 9 11 12 14 15 16 18 21 22 23 22 21 23 24 22 21 20 20 20 19 18 20 21 22 20 19 17 16 15 12 11 12 12 11 10 9 8 7 6 4 4 3 0 1 2 3 3 5 5 7 8 9 10 9 10 10 10 10 10 13 13 15 18 16 13 14 18 19 18 18 16 16
2 7 8 9 11 9 7 9 10 6 6 8 10 12 11 4 1 12 13 7 11 13 14 12 10 11 13 12 13 14 16 19 21 21 21 21 21 24 26 25 23 22 21 21 20 19 20 22 23 20 19 18 17 16 13 12 11 11 12 11 9 9 7 6 5 4 3 2 1 1 2 4 4 5 7 7 9 9 9 11 11 11 10 11 14 14 16 19 16 13 14 17 18 15 15 14 14
5 6 9 12 13 11 11 12 10 7 5 8 10 11 12 5 6 18 10 4 5 10 12 12 11 12 12 13 13 12 13 18 21 20 21 23 24 24 26 27 25 23 22 23 21 20 22 23 22 20 18 19 18 15 13 13 11 12 12 10 10 9 7 6 5 4 3 3 2 1 2 3 4 5 7 9 10 10 11 12 12 12 10 12 16 16 18 19 15 12 13 16 15 13 14 13 13
6 5 10 13 12 13 14 13 9 8 5 6 5 8 12 12 15 23 14 7 7 9 11 11 12 12 11 12 12 11 13 16 19 20 23 25 24 24 27 27 26 24 22 22 21 21 22 22 21 19 18 19 18 14 14 13 11 13 12 9 10 9 7 6 5 5 4 3 2 2 3 3 4 6 8 10 10 11 12 12 11 11 10 14 18 17 18 17 14 12 12 13 13 12 13 13 14
6 6 8 10 11 12 11 9 7 8 5 7 5 8 10 13 21 22 10 11 10 9 12 12 11 11 10 11 11 12 13 15 18 22 24 25 23 24 26 26 26 25 21 21 22 22 23 23 21 20 19 19 18 14 13 13 11 12 11 10 10 8 7 7 6 6 5 3 3 3 3 4 5 7 8 9 10 11 10 10 10 10 11 16 18 16 17 16 12 11 13 13 13 13 14 14 15
5 5 5 6 9 6 6 9 9 8 4 7 7 8 10 11 15 15 9 12 11 10 12 12 12 11 10 11 11 12 13 15 20 23 24 24 23 23 25 25 26 26 23 22 24 23 22 24 23 22 21 19 19 16 13 13 12 12 11 10 11 9 8 7 6 6 5 4 3 4 5 5 6 7 8 9 9 9 8 9 9 10 14 17 17 15 16 14 11 12 15 15 15 15 15 16 16
6 5 6 7 7 5 6 10 11 8 3 9 10 6 11 13 6 6 9 10 10 11 12 11 13 13 12 12 12 12 12 16 20 23 23 24 24 23 24 26 26 27 25 23 24 23 22 24 26 25 23 20 19 17 15 15 14 13 12 11 12 11 9 7 7 7 6 5 4 5 6 5 6 8 8 8 8 8 9 9 10 12 16 18 16 16 16 14 13 16 17 14 15 16 16 17 16
7 7 8 8 8 9 6 7 9 7 4 10 12 7 9 9 1 6 7 8 10 10 12 12 14 15 14 12 11 12 12 14 17 21 24 24 24 23 23 26 27 27 26 23 25 25 23 25 27 26 24 21 20 19 18 18 16 14 13 13 13 12 10 8 8 8 7 6 5 5 7 6 7 8 9 9 9 10 11 11 13 14 16 17 17 17 18 17 15 16 16 15 15 15 16 16 17
6 6 7 9 11 12 7 3 5 7 6 9 13 11 14 13 9 6 6 9 11 12 14 16 16 16 15 12 12 13 13 14 15 19 24 25 24 24 23 24 26 26 25 23 25 27 24 25 27 26 23 21 19 20 20 18 16 15 14 13 13 12 11 9 8 9 7 6 6 7 8 7 8 9 10 10 10 12 13 13 14 14 15 16 17 18 18 16 14 13 15 17 15 15 16 17 18
10 9 8 10 11 11 12 6 5 10 9 9 12 13 17 19 17 16 12 11 13 14 16 17 18 18 16 13 14 13 14 15 14 18 24 25 24 24 23 23 25 25 25 23 24 26 24 24 26 25 23 21 19 19 19 17 15 14 12 12 12 12 11 11 11 10 8 8 8 9 9 7 9 11 11 11 12 13 13 13 12 12 14 16 16 18 16 13 12 12 15 16 15 15 16 17 18
14 13 9 11 12 12 16 8 6 9 8 9 14 15 18 19 17 17 17 14 14 15 15 16 17 17 15 14 15 14 14 14 13 18 23 24 23 23 23 23 24 25 24 24 24 26 24 24 25 24 23 22 20 19 19 18 15 14 13 12 12 12 12 12 12 11 9 9 10 11 9 8 10 11 12 13 13 13 12 12 11 12 14 14 15 15 12 11 12 14 15 15 15 15 14 14 15
13 12 10 13 13 13 17 8 5 6 5 10 14 16 19 20 18 17 17 16 17 18 18 17 17 15 13 15 16 15 14 10 11 16 21 23 23 22 23 22 23 24 24 24 26 26 26 25 26 25 24 23 21 21 20 19 17 16 15 14 13 13 13 12 12 12 11 11 11 11 10 10 11 12 12 13 12 12 11 10 10 11 12 13 13 13 13 15 15 15 14 13 14 14 13 13 13
12 12 11 12 12 13 16 5 6 6 4 9 13 15 19 18 17 17 17 18 18 18 20 20 19 16 13 14 16 14 10 7 10 13 17 21 21 22 23 21 23 26 25 27 27 27 26 26 26 25 25 24 22 21 21 20 18 17 16 15 14 13 13 12 10 11 12 12 13 12 10 11 12 12 12 12 12 11 10 10 10 11 11 12 13 14 16 16 15 14 13 13 12 12 13 13 12
11 9 8 10 10 12 11 2 6 5 4 7 11 13 16 18 19 19 19 19 17 18 21 20 18 16 14 14 13 11 9 9 10 12 14 18 20 21 22 21 23 26 26 27 27 27 26 25 25 25 25 25 22 22 22 20 18 17 15 15 14 12 12 13 12 12 13 13 12 12 11 12 12 12 12 12 12 12 10 10 11 12 12 12 13 14 14 14 13 12 11 12 12 13 13 11 10
9 8 7 10 10 9 7 2 4 6 7 7 11 12 13 16 18 19 22 21 17 17 19 18 16 15 15 14 10 8 10 11 11 13 13 15 18 21 22 21 22 24 24 26 27 27 27 26 26 25 25 24 22 22 22 19 18 18 16 16 16 13 11 14 15 14 14 13 12 13 12 12 12 12 12 13 12 12 11 11 12 12 13 13 12 13 13 13 12 12 11 11 12 12 12 11 9
9 10 10 11 12 12 11 3 2 7 8 4 8 11 11 12 15 15 14 14 13 13 13 14 15 14 13 13 9 7 10 11 11 13 14 14 17 20 22 21 22 23 25 26 28 28 26 26 26 25 24 24 22 23 23 20 20 22 20 17 16 14 12 12 13 12 13 13 12 13 13 13 12 12 13 13 12 12 12 12 13 13 13 13 12 12 13 13 12 12 12 11 11 12 13 12 10
9 12 15 17 15 15 14 6 6 8 7 2 3 10 8 7 10 10 5 6 8 8 9 12 13 12 11 11 9 8 10 9 10 12 14 14 15 18 21 21 22 24 25 26 27 27 25 25 26 25 24 24 22 24 26 24 24 24 22 18 15 14 13 12 12 11 11 12 12 12 12 13 13 13 13 13 13 12 12 12 13 14 13 13 12 12 13 13 13 13 12 11 11 11 13 13 12
8 6 8 13 14 14 14 8 4 6 7 1 2 7 9 5 7 8 6 6 9 7 8 11 10 9 10 9 8 9 10 9 10 11 13 14 14 16 19 22 24 24 24 25 25 26 25 25 27 26 24 24 24 27 29 28 25 22 21 19 16 14 13 12 12 11 10 10 9 11 12 13 14 14 13 13 13 12 12 12 13 14 13 13 12 13 13 13 13 12 12 12 12 12 12 13 13
5 1 2 4 7 10 9 7 6 7 8 4 4 4 12 9 6 10 9 9 10 9 11 12 10 10 11 11 8 10 10 10 10 11 13 14 15 16 19 22 24 24 24 24 25 27 27 27 28 27 26 26 28 31 31 30 25 21 20 19 15 14 13 11 11 11 11 11 11 12 12 12 13 14 13 13 12 12 12 13 13 13 13 13 13 13 14 14 13 13 12 12 13 12 11 13 13
2 3 3 2 0 3 4 5 6 7 8 7 7 8 10 11 5 12 14 12 12 13 15 15 12 12 12 11 8 10 10 11 11 11 13 14 15 18 20 22 23 24 25 25 27 27 27 27 28 28 27 26 29 32 32 30 27 23 21 19 15 14 12 11 10 10 11 12 13 13 12 12 13 14 14 13 12 12 12 12 13 12 13 13 14 14 14 14 15 14 14 13 13 14 13 13 14
2 4 4 5 3 1 1 4 5 6 9 10 9 11 8 11 3 11 12 11 11 12 12 13 12 11 10 8 8 9 9 9 10 11 12 13 15 18 19 20 21 23 25 25 26 27 27 28 28 29 29 26 28 32 32 31 28 24 21 19 17 15 13 12 11 10 11 11 12 12 12 12 11 11 12 12 12 12 12 12 12 12 13 13 14 14 15 15 15 14 14 14 14 15 14 14 14
5 5 3 2 2 2 2 4 2 6 11 11 13 16 11 10 2 10 9 10 13 11 9 11 10 10 9 7 7 8 9 8 9 10 10 11 14 17 18 19 21 22 24 24 25 27 28 29 29 30 30 26 27 32 33 31 29 26 21 20 19 17 15 15 13 12 12 12 12 12 12 11 10 11 11 11 11 11 11 11 12 13 14 14 14 14 15 14 13 12 13 14 14 15 15 14 15
4 3 2 2 4 2 3 4 2 6 10 5 12 19 17 11 4 7 9 12 15 11 8 10 8 8 7 6 7 8 9 9 9 9 9 11 12 15 17 19 21 22 23 25 26 27 28 29 30 30 30 28 28 32 32 30 30 27 22 21 21 19 18 18 16 14 14 14 12 11 11 10 10 11 11 10 10 10 11 12 13 14 14 13 13 13 14 14 13 13 13 14 14 14 15 15 15
4 5 5 4 4 3 4 5 4 8 8 3 9 13 14 13 9 7 8 10 13 10 7 9 8 8 6 6 7 7 8 9 9 9 9 10 11 12 15 18 21 22 24 26 26 28 28 29 31 31 31 30 28 30 31 30 31 28 24 24 23 21 20 20 19 17 15 14 13 12 12 11 10 10 10 9 8 9 11 12 13 13 13 13 13 14 15 15 14 14 13 14 15 15 15 15 16
8 8 7 6 5 5 6 6 6 9 8 3 7 5 7 8 8 14 17 14 14 12 9 8 8 8 4 4 7 6 7 8 8 9 9 10 11 11 13 17 20 21 23 26 27 28 28 28 30 31 31 30 28 28 30 30 29 28 28 27 24 24 23 22 21 19 17 15 14 14 14 13 12 11 11 10 10 11 13 14 15 15 15 16 16 16 16 15 15 14 15 16 16 16 16 16 17
10 8 7 7 6 6 6 7 8 8 6 1 5 3 5 3 1 12 19 18 16 12 9 8 8 6 2 3 5 6 7 7 7 8 9 10 11 12 13 17 19 21 23 25 26 27 27 28 31 32 31 30 30 29 30 30 29 29 30 29 27 26 26 24 23 20 19 18 17 17 16 16 15 14 13 12 12 14 15 17 17 17 17 17 17 16 16 16 16 15 15 16 16 16 16 17 18
7 6 7 8 6 7 8 8 6 3 7 5 5 4 6 5 2 7 11 14 16 13 11 9 8 6 5 3 5 6 7 7 7 8 10 11 11 11 13 16 18 20 22 25 26 28 29 29 31 32 32 32 32 32 32 31 31 31 32 31 29 28 26 25 23 21 21 21 20 20 19 18 17 15 14 13 14 15 16 17 18 17 16 17 17 16 15 15 15 15 15 16 16 16 16 18 19
5 6 7 4 1 4 7 9 3 1 7 8 5 6 8 8 7 8 11 13 16 15 13 12 11 9 7 5 6 6 7 8 8 8 9 10 11 11 14 16 18 20 22 26 28 30 31 30 31 32 32 31 32 33 33 32 32 32 32 32 31 29 28 27 25 23 23 22 22 22 20 19 18 16 15 15 15 16 17 17 17 17 16 16 16 16 15 15 15 15 16 16 17 17 18 19 19
4 5 4 1 2 1 4 7 4 4 10 9 8 12 11 8 7 9 14 15 17 16 14 13 12 9 8 7 6 7 8 8 8 8 8 9 10 11 14 17 19 22 24 26 27 28 29 29 31 32 33 33 33 35 35 34 35 34 33 33 32 30 30 28 26 24 24 23 23 23 21 19 17 16 15 15 16 16 16 16 16 17 16 16 16 15 15 15 15 15 16 17 17 17 18 19 19
1 2 1 1 2 4 6 6 5 7 9 9 14 19 14 10 7 6 14 17 16 16 14 12 11 9 8 8 7 8 9 7 8 8 8 8 9 11 14 17 19 21 22 23 24 26 28 28 31 33 33 33 34 36 36 36 37 37 35 35 33 31 30 29 28 26 25 25 24 22 21 19 16 15 15 15 15 15 16 15 16 15 15 15 15 14 15 14 14 15 16 16 17 16 18 20 19
1 3 3 1 2 3 5 5 4 7 8 9 15 18 12 10 7 8 15 17 16 15 13 11 11 11 9 7 7 9 8 7 8 8 8 9 10 12 14 17 19 20 20 21 24 27 28 27 31 33 31 32 35 38 39 38 38 38 36 35 33 32 31 30 29 28 27 26 24 22 20 18 16 15 15 15 15 15 15 15 15 15 14 15 14 14 14 14 15 16 16 16 17 16 18 20 20
6 5 6 6 3 1 2 4 5 6 7 7 9 13 12 6 2 8 13 13 13 13 11 9 8 10 10 8 8 9 7 6 7 7 7 8 9 10 13 16 18 19 20 22 25 27 28 28 32 33 32 35 39 40 41 40 39 38 38 36 34 32 32 30 30 29 28 26 24 22 20 18 16 15 15 15 15 15 15 15 15 15 15 16 15 15 14 14 15 16 16 16 16 17 18 20 20
8 9 10 10 9 5 3 7 6 4 5 8 7 12 15 4 5 5 7 6 7 9 10 7 7 9 9 9 9 10 8 7 7 8 7 8 8 8 11 14 16 18 19 21 24 26 28 29 32 33 34 39 42 41 42 42 39 39 39 37 35 33 32 31 30 29 28 26 24 22 20 18 17 16 16 16 16 16 15 15 15 16 16 16 15 14 14 14 14 15 16 16 16 16 18 19 20
Wind_Direction
126 159 147 264 263 275 253 234 252 207 232 263 225 194 164 141 93 177 176 175 211 191 163 92 153 120 107 355 301 314 2 9 0 341 320 85 115 114 103 104 99 97 96 79 80 59 46 63 65 61 60 58 59 61 63 64 68 73 72 69 65 60 60 61 61 60 63 63 59 60 57 58 58 55 53 49 43 33 31 29 25 23 21 16 7 2 356 349 346 344 345 345 342 340 336 326 326
140 200 214 261 247 257 262 195 266 223 224 253 194 176 127 138 191 203 189 181 167 131 144 137 174 180 22 355 321 283 357 52 44 74 84 116 129 118 117 112 101 98 99 83 77 74 57 63 73 68 67 68 67 69 70 72 80 81 75 73 68 64 64 62 60 55 57 58 55 51 41 37 37 36 33 30 25 20 20 16 14 16 19 17 10 7 1 356 352 347 347 344 336 336 340 330 324
175 220 214 243 228 243 285 199 261 267 255 268 150 121 133 165 195 198 178 149 96 103 137 124 154 210 229 238 255 261 222 83 91 97 105 147 146 132 147 132 109 93 101 92 75 74 64 73 85 79 79 79 78 82 82 86 91 87 87 85 78 75 71 65 61 54 51 51 45 36 25 19 15 10 7 7 5 2 359 354 353 356 359 0 360 4 2 358 355 353 351 347 339 332 335 332 326
178 232 233 247 221 224 252 221 258 283 276 291 102 128 157 189 180 149 92 94 95 121 147 147 167 115 236 232 236 299 245 105 101 93 122 155 125 129 156 139 112 99 106 94 80 79 83 104 101 93 95 95 99 97 95 95 90 90 92 92 93 90 84 80 73 67 63 57 50 42 28 17 10 3 359 357 359 357 352 347 344 344 345 344 345 351 347 345 345 345 346 347 344 332 332 333 328
189 241 245 263 250 229 262 249 260 265 278 323 0 131 166 192 161 127 95 99 108 139 160 186 193 91 257 265 310 299 114 104 110 102 114 127 116 137 156 134 118 116 111 100 96 87 101 128 111 106 108 106 111 105 103 98 93 95 92 95 97 96 96 92 89 82 75 66 58 47 30 15 7 2 359 357 358 357 354 348 343 342 342 341 341 345 336 325 323 324 324 325 329 324 328 330 330
232 232 235 261 275 333 269 252 252 244 287 339 331 97 162 185 151 132 119 110 112 125 143 198 205 114 210 250 313 345 57 101 131 121 119 137 146 150 144 131 125 123 116 110 109 105 119 130 121 119 119 117 115 109 105 98 96 96 95 97 95 95 96 92 91 86 81 73 61 51 35 17 7 359 356 354 355 354 353 350 346 342 340 339 337 337 333 329 325 322 319 318 319 315 317 317 319
257 228 204 235 235 252 253 253 264 257 43 11 330 34 164 168 139 137 140 132 140 160 183 203 165 219 200 129 190 78 77 85 107 115 133 146 156 150 136 134 131 127 124 114 121 149 148 136 131 127 124 122 117 117 109 104 98 93 95 92 90 88 84 81 78 74 69 62 53 46 37 27 21 13 6 0 356 350 347 345 343 341 339 338 334 331 331 332 332 329 325 322 320 314 312 310 309
260 261 200 240 227 206 249 258 266 274 52 55 27 9 350 149 150 156 166 170 170 174 190 193 190 242 192 147 214 114 114 99 98 119 129 143 156 151 135 139 135 130 129 123 144 167 163 152 143 136 132 128 119 122 112 111 104 96 95 85 81 71 63 61 56 53 51 46 40 36 32 27 23 22 20 16 10 0 351 345 338 335 336 335 333 330 328 328 330 329 322 318 316 314 313 311 310
236 247 239 252 247 223 245 257 256 270 208 128 142 119 354 153 171 178 184 184 167 176 190 181 191 225 126 179 211 119 151 132 119 129 133 145 151 149 136 145 146 139 138 140 165 170 170 164 154 151 143 140 131 126 115 111 104 100 96 84 73 58 51 44 44 42 39 36 34 30 27 23 21 22 20 19 17 13 5 357 349 343 339 336 333 329 326 325 324 321 316 315 314 313 312 312 312
218 227 256 259 259 250 247 251 242 250 179 163 153 164 179 176 186 194 196 193 178 175 176 168 195 223 255 236 200 115 156 145 140 140 141 148 147 150 142 147 149 148 155 159 170 172 175 171 168 169 158 157 148 141 135 125 117 112 100 92 79 65 53 44 44 40 39 37 35 31 30 26 23 23 21 20 17 15 11 6 1 356 352 347 342 337 333 328 324 320 317 316 314 313 312 312 313
226 205 250 269 253 252 255 262 253 179 137 173 180 166 178 185 195 204 206 204 186 172 149 150 203 228 246 259 218 109 141 151 155 152 150 153 150 153 151 158 161 163 171 170 169 165 172 175 179 179 170 167 160 156 147 144 141 131 121 111 100 92 81 71 64 57 54 49 46 42 40 36 34 32 28 26 22 19 15 11 8 3 1 357 353 348 344 339 334 328 324 321 317 316 314 313 312
248 208 213 255 259 268 292 306 301 310 179 208 201 171 174 186 196 205 209 208 189 186 176 173 202 234 229 250 189 128 149 164 165 158 155 155 154 154 156 164 170 174 176 171 168 168 172 176 179 179 175 171 166 164 154 150 143 134 129 116 107 98 88 83 78 74 73 66 64 59 54 51 46 44 39 35 30 26 20 17 13 8 5 1 359 355 351 347 343 339 335 331 326 322 319 317 315
250 263 241 254 278 291 305 307 304 305 267 234 200 162 168 187 200 210 209 214 204 209 200 185 176 293 237 256 112 147 166 172 165 158 157 158 158 155 151 157 167 173 173 172 173 175 173 174 179 174 168 167 163 162 157 150 139 131 121 110 102 92 86 82 79 77 76 75 73 69 66 61 57 54 50 47 42 38 33 27 22 17 12 6 3 359 354 350 346 343 340 337 333 331 327 324 321
254 286 274 268 284 282 286 286 292 296 280 165 137 147 174 196 206 213 211 223 216 209 175 170 172 210 255 248 156 177 174 169 163 157 158 159 158 156 153 160 171 176 176 175 177 179 173 174 177 171 164 161 158 155 156 148 136 124 110 102 96 90 87 83 80 76 73 70 67 65 63 59 54 49 46 44 41 39 36 32 30 27 22 17 12 7 2 357 352 348 344 340 337 334 332 330 327
266 280 266 268 274 272 256 265 295 292 293 100 128 155 184 203 207 216 219 231 221 115 98 139 179 184 257 227 200 155 162 163 159 156 157 156 155 157 159 170 180 182 181 178 177 178 176 178 177 174 169 164 161 161 160 142 126 110 95 91 86 82 80 76 73 70 66 63 60 58 54 49 43 38 35 33 32 30 27 24 23 22 18 16 13 10 8 4 0 356 352 347 342 340 337 334 329
262 278 251 258 268 271 219 237 288 275 306 93 144 170 189 199 193 217 237 276 292 112 169 178 189 217 313 207 47 110 152 156 155 155 153 153 156 159 165 175 181 183 185 182 181 181 181 183 180 178 176 174 175 174 170 152 136 114 95 85 79 74 70 67 64 62 61 58 56 53 50 46 38 33 29 25 24 22 20 17 14 13 10 8 5 4 3 1 1 359 357 353 350 347 342 340 338
241 252 247 255 257 265 225 231 267 290 340 97 156 182 206 205 180 213 16 292 260 195 202 210 196 225 298 110 89 135 147 150 154 155 157 161 165 170 178 182 181 183 189 187 187 191 190 188 183 184 185 184 184 179 173 161 153 135 118 103 91 80 73 71 65 61 59 54 52 53 50 47 42 34 28 23 21 18 18 15 10 9 6 4 2 1 359 360 359 357 357 355 354 353 353 354 352
221 229 244 256 262 272 329 278 285 314 305 188 167 193 224 218 174 178 157 236 243 234 224 223 213 218 184 117 127 149 148 154 160 163 168 172 177 182 186 188 188 187 188 189 190 193 192 191 189 190 190 188 186 180 172 164 157 147 139 131 114 97 87 81 73 65 61 56 51 52 48 44 41 32 26 23 20 19 18 14 11 11 8 7 4 1 2 2 359 357 358 355 356 358 360 0 353
231 249 254 257 274 304 4 294 285 289 291 286 190 205 228 235 175 159 208 229 224 232 233 221 224 224 187 150 155 157 157 166 171 177 180 181 187 190 190 189 192 191 188 188 188 189 190 191 190 192 195 189 182 175 169 164 159 155 152 147 132 114 101 86 75 64 55 50 47 49 40 35 37 25 17 19 19 16 13 10 10 9 8 7 4 3 5 2 0 0 0 359 360 1 0 359 351
235 247 256 265 305 307 280 265 265 276 288 275 252 210 222 241 174 150 218 243 227 228 231 218 223 226 206 175 166 168 171 179 182 188 189 191 194 195 196 192 194 194 189 187 185 186 187 189 188 194 196 184 176 172 165 165 164 161 161 155 142 127 102 80 64 54 47 44 44 46 34 30 35 21 14 19 18 15 10 7 8 6 5 3 3 6 3 0 2 2 0 2 2 358 357 355 350
226 219 257 302 11 304 282 237 267 280 282 269 262 219 231 233 192 187 224 247 242 236 232 225 222 226 212 179 172 178 180 186 189 194 196 198 200 200 203 199 197 194 187 184 183 185 185 187 190 194 193 183 177 171 167 172 171 166 169 163 153 147 107 78 58 45 43 44 44 43 33 31 34 21 16 19 17 15 9 8 6 2 4 2 3 6 0 0 3 1 358 359 358 354 353 351 348
260 235 257 294 305 285 309 81 313 275 255 264 247 237 240 208 204 219 228 238 247 252 246 235 227 238 219 172 174 181 185 192 192 198 202 202 203 203 205 201 198 192 186 185 183 185 185 186 192 192 190 186 179 173 179 183 175 171 178 171 159 156 126 97 81 53 43 46 46 45 41 34 32 19 12 13 14 12 5 6 5 360 3 0 1 2 357 1 2 357 356 354 353 351 349 347 345
256 251 253 267 264 264 293 66 102 206 240 242 241 254 239 214 233 229 227 236 244 261 43 258 237 258 197 160 171 182 188 196 195 200 202 203 204 203 203 200 196 192 187 187 183 183 183 184 193 193 190 189 184 182 187 186 177 178 185 175 161 163 147 123 125 102 52 48 47 47 49 38 30 18 9 11 10 7 360 1 3 359 0 356 359 359 354 0 360 354 354 352 352 350 348 346 343
240 266 266 259 254 252 267 325 167 224 243 244 268 291 241 236 252 246 234 238 244 244 152 133 154 164 155 159 175 185 192 197 200 203 202 204 206 203 203 201 199 192 186 186 182 181 181 182 192 193 192 194 193 188 185 184 183 188 187 174 172 171 151 151 158 127 70 46 45 42 46 39 29 15 8 11 6 1 356 358 2 357 357 353 355 356 352 356 356 351 349 349 350 349 349 346 341
224 257 278 268 246 251 255 234 225 232 237 247 263 258 247 247 272 274 251 246 246 245 224 178 175 180 178 182 186 189 197 200 203 205 204 207 207 205 205 203 200 193 188 186 181 181 181 184 193 192 192 195 193 188 182 182 188 189 181 173 183 176 161 173 166 131 115 47 34 26 32 29 21 10 2 6 1 358 355 357 359 353 354 349 350 353 349 351 352 346 343 345 347 346 346 342 339
224 265 294 272 260 260 248 241 244 234 227 219 229 247 250 251 307 276 255 250 247 242 237 215 193 203 202 199 198 196 199 202 204 204 204 206 205 205 205 203 202 198 193 186 182 182 180 187 193 190 192 192 189 186 181 182 187 187 182 181 185 178 178 182 161 153 166 155 347 357 10 11 10 3 357 360 357 357 356 355 354 351 351 345 346 348 344 349 349 340 336 340 342 341 340 335 332
318 291 294 273 266 263 243 246 245 231 236 216 222 252 253 205 199 261 254 248 240 229 230 222 208 219 215 211 208 202 204 205 203 201 201 202 203 206 203 203 203 200 193 187 185 183 182 189 192 189 190 189 187 186 181 181 182 184 187 186 184 182 185 177 168 181 187 203 252 334 356 3 4 354 350 353 353 354 352 350 349 348 346 341 343 342 342 349 347 335 332 334 337 333 330 327 323
317 304 295 274 263 253 235 239 236 220 230 212 221 259 254 201 207 247 242 122 194 205 213 214 214 226 219 218 213 206 210 208 202 199 200 200 202 202 201 202 200 197 193 190 186 182 184 189 191 187 185 190 191 185 183 181 176 185 187 181 188 190 181 174 181 191 197 222 246 321 337 354 354 346 343 343 346 347 344 344 345 344 340 337 340 341 343 348 342 328 323 327 329 321 318 319 318
291 296 286 278 269 257 236 228 218 207 203 171 196 268 249 215 223 246 235 163 175 197 211 213 216 225 219 218 214 210 212 205 202 202 204 203 201 199 201 201 197 195 195 191 185 183 186 186 186 183 184 193 191 183 185 182 179 189 184 179 194 190 176 180 187 195 207 232 258 295 317 337 338 335 333 333 337 338 338 339 338 338 333 332 339 342 341 342 335 320 319 323 321 317 317 317 318
280 263 263 279 279 265 229 201 178 190 190 145 179 273 259 216 222 240 221 167 185 204 218 221 221 223 219 217 213 213 210 204 204 204 206 206 203 201 202 201 196 194 191 188 186 184 185 184 182 182 186 193 189 183 185 180 180 187 179 183 194 182 175 185 190 201 207 229 268 283 300 316 320 321 320 323 327 329 332 332 330 330 325 330 339 339 335 336 328 316 323 325 322 321 319 318 319
257 252 239 254 267 268 179 164 165 181 176 152 186 257 272 262 239 224 179 167 194 215 222 225 227 223 217 216 213 214 210 207 208 206 206 206 205 204 202 199 194 193 189 186 187 182 181 185 186 187 188 188 187 184 180 179 180 181 177 183 190 180 178 184 191 206 204 211 253 272 284 300 304 306 307 312 318 322 324 323 324 322 320 330 336 333 331 332 323 321 328 328 324 322 318 318 317
233 246 257 244 246 256 190 175 186 195 158 169 193 236 261 280 282 162 152 175 198 226 235 229 234 230 218 212 210 215 213 210 211 208 207 206 206 204 201 199 193 192 191 185 183 179 178 187 191 193 190 186 187 185 181 185 186 185 181 185 193 188 183 185 193 204 203 209 226 255 273 284 287 292 296 303 313 317 318 320 320 317 321 331 333 331 333 332 326 326 329 326 321 317 316 317 315
230 226 261 263 259 269 234 175 196 208 147 177 207 248 263 268 284 123 150 188 200 231 247 242 246 243 230 219 208 210 212 209 209 207 206 206 207 204 200 198 194 192 191 184 180 179 178 187 194 195 193 187 186 188 191 193 190 189 189 193 198 192 187 187 198 205 203 213 217 233 258 271 277 283 292 301 311 314 316 318 318 319 323 329 330 331 333 331 326 322 322 321 316 314 313 314 315
253 229 250 263 266 274 262 205 197 197 189 205 215 236 255 259 260 244 204 194 206 235 253 254 255 252 243 232 217 210 208 207 206 201 202 203 203 202 199 197 193 190 190 185 182 180 178 186 195 195 192 185 183 190 194 194 190 189 193 198 198 194 195 193 200 209 203 211 217 227 248 265 273 280 289 298 306 309 313 317 318 318 320 326 328 329 329 326 320 312 313 314 313 312 312 315 316
280 273 267 272 272 270 268 269 162 176 202 229 226 233 250 257 262 265 252 224 220 236 253 259 258 255 251 243 232 221 208 209 206 195 196 199 198 197 196 194 190 188 189 185 181 181 179 185 193 192 188 183 182 187 189 188 187 186 188 194 198 199 203 205 208 210 206 211 219 233 249 258 267 277 288 295 300 304 309 313 311 309 316 324 325 324 323 317 308 303 305 307 310 312 311 312 312
281 284 280 280 281 272 271 277 149 179 210 228 235 245 257 260 260 262 263 256 247 248 253 257 258 257 254 248 242 231 216 212 202 190 190 193 194 192 190 190 187 186 188 185 181 181 179 182 186 185 184 182 180 181 183 183 181 182 183 187 198 200 201 209 213 212 209 212 224 239 250 254 261 274 285 291 296 299 304 306 303 307 317 322 320 316 307 298 298 301 303 305 308 310 311 308 308
279 280 276 272 273 271 272 273 149 182 230 243 247 254 260 265 264 262 265 266 265 264 261 257 258 258 252 248 246 237 226 208 182 184 187 187 189 186 185 185 183 184 187 185 183 182 182 181 181 182 182 182 181 181 182 183 181 182 184 186 194 195 193 202 211 214 213 214 228 242 249 254 260 270 280 285 289 293 297 295 295 305 313 313 307 301 296 298 300 300 302 305 306 307 309 308 310
269 267 271 271 267 267 273 271 139 168 223 257 262 264 264 264 265 265 264 261 258 259 261 262 262 263 259 251 248 242 225 179 166 181 183 182 183 181 181 182 181 184 187 187 186 184 183 182 182 182 182 183 184 184 184 186 186 186 186 189 189 186 189 195 199 208 215 219 231 244 248 254 261 269 276 278 281 284 283 283 291 299 304 303 299 298 300 302 300 297 298 302 304 304 303 306 311
262 259 260 265 264 269 273 204 137 171 215 266 274 274 273 269 267 263 257 256 251 245 251 261 266 267 263 256 254 241 199 165 174 186 181 179 178 177 179 183 186 187 188 188 188 185 182 182 183 183 184 185 185 186 188 187 187 186 185 186 182 178 187 194 190 197 213 223 234 245 247 252 260 267 272 274 274 278 279 285 296 298 299 298 296 297 296 292 291 291 292 296 300 301 300 302 309
242 241 247 254 255 266 269 183 149 198 217 272 289 280 272 268 261 252 246 247 248 244 245 254 261 262 261 260 265 238 191 174 185 190 183 179 176 178 183 186 188 189 189 189 188 186 184 185 185 184 184 185 184 188 190 184 183 185 184 185 183 179 187 200 204 212 224 231 237 244 248 251 258 262 265 269 271 276 281 288 295 295 295 295 290 288 284 282 284 285 285 287 292 298 300 302 303
231 226 233 248 251 255 263 284 345 254 234 252 293 282 264 254 250 244 235 232 241 247 244 247 252 255 256 260 264 231 195 183 190 191 185 182 180 185 189 188 187 189 191 190 188 187 187 187 186 183 184 184 184 189 188 182 185 189 187 188 189 189 193 204 212 218 225 231 234 239 246 250 253 258 261 267 270 274 281 288 293 293 292 290 284 277 276 278 279 279 280 280 282 289 295 299 298
243 223 228 243 256 262 266 296 355 296 265 157 327 300 271 227 235 237 191 185 218 227 236 240 243 245 246 252 245 209 194 194 197 192 184 184 185 188 190 189 189 191 193 191 188 188 187 186 185 182 184 184 185 191 190 188 192 192 189 188 189 192 197 204 207 206 207 218 228 232 242 248 252 256 260 266 270 274 282 287 290 290 289 287 279 271 271 275 276 275 272 274 278 281 287 294 296
250 231 238 245 255 264 266 281 302 281 280 173 61 314 286 229 214 220 179 192 210 196 227 238 233 232 231 239 225 186 190 199 198 191 182 183 185 186 189 191 192 192 192 188 186 189 187 185 184 182 184 185 187 194 196 195 194 191 192 193 192 193 197 202 200 194 188 193 209 222 235 248 254 257 259 264 269 274 282 285 286 287 287 283 273 267 268 271 271 269 267 270 278 281 280 285 293
250 13 348 250 251 258 257 265 253 260 288 274 168 237 277 271 210 204 203 219 228 222 242 248 236 226 226 233 211 176 187 191 186 187 183 185 187 187 190 191 192 191 188 185 185 188 188 185 184 183 185 187 193 199 198 197 194 189 192 194 194 196 195 190 182 182 189 195 207 223 234 244 252 256 258 262 268 274 279 282 283 283 282 276 266 262 264 266 266 267 269 271 274 278 275 276 286
262 51 36 67 294 258 236 245 253 268 286 270 200 185 258 280 198 188 204 211 224 231 241 249 245 236 234 234 202 173 186 187 181 184 183 187 188 188 190 188 190 189 186 185 185 186 187 186 184 185 187 189 195 199 198 198 197 193 194 192 191 193 190 183 175 181 199 210 218 227 232 235 244 253 259 261 265 270 276 280 280 280 279 269 260 261 264 265 267 270 274 276 275 276 275 275 280
147 109 86 77 90 109 177 242 266 279 269 255 217 175 228 281 192 169 196 201 213 226 233 240 240 238 234 221 185 171 183 184 181 184 184 187 187 186 186 184 186 187 186 186 185 184 185 185 185 187 189 189 194 198 198 198 198 194 194 193 191 190 186 185 185 189 200 211 219 224 226 228 232 239 247 257 263 268 274 278 280 282 277 265 264 272 272 271 273 274 276 279 279 280 279 277 276
136 147 119 111 186 162 212 241 267 278 262 243 213 186 206 271 197 151 182 196 200 204 220 235 235 230 218 190 174 174 177 179 180 183 183 181 181 180 181 183 184 184 184 184 183 184 184 186 187 189 190 188 193 199 199 197 197 195 193 192 192 188 184 186 190 196 203 210 215 219 223 224 222 225 234 247 259 269 277 281 286 288 281 273 277 279 273 273 275 275 278 279 279 279 277 276 274
165 175 186 216 226 200 218 218 171 251 263 226 191 187 198 236 216 153 182 195 192 186 215 246 245 234 215 173 172 177 172 175 175 177 177 172 173 177 180 184 183 181 182 184 184 184 185 188 188 189 191 189 190 196 196 194 197 197 193 194 196 191 189 193 195 198 205 210 211 214 219 220 224 233 240 248 260 274 280 283 288 285 279 277 277 273 269 271 275 277 279 278 278 276 273 273 272
203 192 194 232 246 229 230 219 191 237 255 155 162 187 207 235 241 218 214 197 190 194 226 252 252 242 227 170 161 169 169 172 172 172 173 172 175 178 183 185 182 182 185 185 185 185 187 190 190 191 191 189 188 190 191 193 197 197 194 196 199 197 198 202 202 203 206 208 210 212 216 220 225 231 237 244 253 265 269 274 277 270 270 275 271 269 271 273 276 278 278 277 277 275 271 270 267
194 191 186 205 231 248 249 239 236 247 249 147 134 183 232 258 245 222 225 213 201 214 226 232 238 236 228 155 145 159 172 172 172 173 173 178 183 182 184 185 184 186 187 186 187 187 188 191 191 192 192 188 186 186 187 191 193 194 197 199 199 201 203 205 206 207 207 206 209 214 218 222 228 231 237 244 250 258 264 271 275 273 278 283 277 274 276 279 284 284 280 281 279 274 271 269 266
195 195 197 213 227 242 250 251 253 265 285 203 145 180 235 274 187 196 217 216 205 221 224 208 222 217 148 116 140 160 182 180 176 177 181 186 186 182 183 186 187 189 189 188 188 189 190 191 192 192 190 187 186 186 185 187 190 193 199 200 201 203 206 207 208 209 209 211 214 218 221 226 231 236 243 251 257 264 271 276 281 282 283 285 282 278 279 285 292 287 281 281 277 274 272 269 267
197 185 209 231 236 229 246 271 269 307 316 271 190 217 246 260 245 174 202 207 195 214 222 200 212 201 153 153 176 179 188 188 185 185 187 188 184 183 186 188 189 189 190 189 189 190 190 192 192 191 189 187 187 188 185 186 189 194 198 200 201 203 205 206 208 209 211 214 216 220 225 229 235 241 247 256 263 267 274 278 282 282 281 281 279 279 281 285 289 285 279 278 276 274 274 271 270
168 175 207 226 311 236 244 269 279 95 283 267 212 241 259 264 250 178 171 191 190 204 215 206 212 199 176 187 189 188 194 194 194 192 189 185 182 187 190 190 190 188 190 192 192 192 191 190 189 188 188 187 186 187 186 185 189 192 195 198 200 201 204 205 206 208 211 214 217 222 226 230 236 243 249 256 263 267 272 275 278 280 280 278 279 282 286 288 287 283 278 277 277 277 276 274 272
146 186 210 102 37 296 244 259 265 241 263 268 256 260 264 269 261 171 168 189 193 201 210 211 211 194 190 205 194 194 198 196 200 199 194 188 185 191 194 194 193 192 193 194 193 192 191 190 188 186 187 187 186 187 188 188 191 192 193 196 198 200 203 204 205 207 210 213 218 222 226 230 235 242 248 255 262 268 272 273 276 279 277 276 281 287 289 288 284 279 277 277 277 277 277 276 274
177 260 286 90 220 210 203 225 244 247 256 268 272 274 267 252 255 178 179 194 198 205 210 209 207 196 201 212 207 208 201 193 201 200 196 195 193 197 197 196 197 196 196 194 190 190 191 191 191 190 189 188 188 190 191 191 192 193 192 195 197 199 202 204 205 207 209 213 218 221 225 229 233 239 245 253 260 264 267 269 271 273 270 269 275 280 282 282 278 275 276 276 275 275 276 275 274
229 290 266 228 253 232 211 213 227 239 248 264 277 283 273 248 240 188 183 194 202 206 204 202 206 205 205 206 211 216 203 189 197 197 192 197 202 201 198 198 198 197 195 191 190 192 191 190 191 192 190 189 190 192 191 191 192 193 192 193 195 197 201 203 204 207 210 213 218 220 223 227 231 237 243 249 254 257 259 261 262 263 264 266 270 271 272 274 274 273 272 273 274 274 274 274 274
185 222 217 200 201 270 291 256 236 238 248 255 267 276 274 269 196 175 176 188 202 200 195 197 201 205 205 203 212 219 210 196 196 196 193 197 202 197 194 199 200 198 197 194 194 194 191 191 192 190 188 190 192 193 192 191 191 192 192 192 193 196 199 201 204 207 209 212 216 218 221 225 229 234 240 243 248 252 252 254 257 259 262 267 268 270 273 272 272 271 269 271 273 272 272 272 272
184 197 201 199 191 180 229 237 226 220 242 245 246 263 269 272 105 145 156 160 192 190 184 186 190 202 206 206 216 221 216 208 202 198 197 198 197 185 184 190 191 193 193 191 192 193 191 192 192 189 190 193 194 193 192 192 191 192 192 192 193 195 198 199 201 204 207 209 213 216 219 223 227 232 237 239 243 246 248 250 254 259 263 265 265 270 277 273 269 271 271 271 272 271 271 271 271